Location: Cueva de Ratón
(10.1013°N, 67.6606°W)
Time: 05:04:57
(UTC+00:00)

Radarsat Rocket - Pass Details

Date: 02 December 2023
Orbit: 933 x 1491 km, 100.6° (Epoch: 03 March)

Event Time Altitude Azimuth Distance (km) Brightness Sun altitude
Rises 23:02:41 0° 161° (SSE) 3,785 7.1 -13.5°
Reaches altitude 10° 23:05:16 10° 159° (SSE) 2,774 6.4 -14.1°
Maximum altitude 23:11:20 72° 75° (ENE) 999 3.9 -15.5°
Drops below altitude 10° 23:17:06 10° 352° (N) 2,633 6.1 -16.9°
Sets 23:19:29 0° 350° (N) 3,580 6.9 -17.4°
